Change the Weather History Date:

Wednesday, November 30, 2011

  Actual Average Record
Temperature  
Mean Temperature 27 °F -  
Max Temperature 35 °F 32 °F 46 °F (1998)
Min Temperature 19 °F 8 °F -19 °F (2014)
Degree Days  
Heating Degree Days 38    
Cooling Degree Days 0    
Moisture  
Dew Point 28 °F    
Average Humidity 90    
Maximum Humidity 100    
Minimum Humidity 75    
Precipitation  
Precipitation 0.14 in 0.01 in 0.14 in (2011)
Month to date precipitation 0.23 0.39  
Year to date precipitation 18.50 11.88  
Sea Level Pressure  
Sea Level Pressure 30.06 in    
Wind  
Wind Speed 9 mph (NE)    
Max Wind Speed 23 mph    
Max Gust Speed 30 mph    
Visibility 3 miles    
Events Fog , Rain , Snow    
T = Trace of Precipitation, MM = Missing Value Source: NWS Daily Summary

Daily Weather History Graph

Daily Weather History Graph

Search for Another Location

Airport or City:

Trip Planner

Search our weather history database for the weather conditions in past years. The results will help you decide how hot, cold, wet, or windy it might be!

Date:

Astronomy

Nov. 30, 2011 Rise Set
Actual Time 7:29 AM MST 4:11 PM MST
Civil Twilight 6:54 AM MST 4:47 PM MST
Nautical Twilight 6:15 AM MST 5:26 PM MST
Astronomical Twilight 5:38 AM MST 6:03 PM MST
Moon 11:35 AM MST (11/30) 10:27 PM MST (11/30)
Length of Visible Light 9h 52m
Length of Day
8h 41m
Waxing Crescent, 34% of the Moon is Illuminated
Nov 30
Waxing Crescent
Dec 2
First Quarter
Dec 10
Full
Dec 17
Last Quarter
Dec 24
New

Hourly Weather History & Observations

Time (MST) Temp. Windchill Dew Point Humidity Pressure Visibility Wind Dir Wind Speed Gust Speed Precip Events Conditions
12:53 AM 34.0 °F - 28.9 °F 82% 29.96 in 10.0 mi Calm Calm - N/A   Overcast
1:53 AM 34.0 °F 31.0 °F 30.0 °F 85% 29.94 in 10.0 mi East 3.5 mph - 0.00 in Rain Light Rain
2:53 AM 34.0 °F - 30.9 °F 89% 29.93 in 10.0 mi Calm Calm - 0.00 in Rain Light Rain
3:10 AM 33.8 °F - 30.2 °F 87% 29.88 in 10.0 mi Calm Calm - 0.00 in   Overcast
3:53 AM 33.1 °F - 30.9 °F 92% 29.93 in 10.0 mi Calm Calm - 0.00 in Rain Light Rain
4:53 AM 33.8 °F 28.6 °F 30.2 °F 87% 29.86 in 10.0 mi ENE 5.8 mph - N/A Rain Light Rain
5:31 AM 33.8 °F 28.6 °F 30.2 °F 87% 29.86 in 10.0 mi ENE 5.8 mph - 0.01 in Rain Light Rain
5:53 AM 33.1 °F 26.9 °F 30.9 °F 92% 29.93 in 8.0 mi ENE 6.9 mph - 0.01 in Snow Light Snow
6:18 AM 33.8 °F 27.7 °F 30.2 °F 87% 29.87 in 2.5 mi ENE 6.9 mph - 0.02 in Snow Light Snow
6:32 AM 33.8 °F 27.7 °F 30.2 °F 87% 29.87 in 1.2 mi ENE 6.9 mph - 0.03 in Snow Light Snow
6:53 AM 32.0 °F 24.8 °F 30.9 °F 96% 29.94 in 1.5 mi ENE 8.1 mph - 0.04 in Snow Light Snow
7:11 AM 32.0 °F 24.2 °F 32.0 °F 100% 29.88 in 3.0 mi ENE 9.2 mph - 0.01 in Snow Light Snow
7:19 AM 32.0 °F 24.2 °F 32.0 °F 100% 29.88 in 2.5 mi ENE 9.2 mph - 0.01 in Snow Light Snow
7:24 AM 32.0 °F 24.2 °F 30.2 °F 93% 29.88 in 1.8 mi ENE 9.2 mph - 0.01 in Snow Light Snow
7:51 AM 32.0 °F 24.2 °F 30.2 °F 93% 29.89 in 0.8 mi East 9.2 mph - 0.02 in Snow Light Snow
7:53 AM 32.0 °F 24.2 °F 30.9 °F 96% 29.96 in 0.8 mi East 9.2 mph - 0.02 in Snow Light Snow
8:26 AM 32.0 °F 23.6 °F 30.2 °F 93% 29.90 in 1.0 mi East 10.4 mph - 0.02 in Snow Light Snow
8:36 AM 32.0 °F 24.2 °F 30.2 °F 93% 29.90 in 0.8 mi East 9.2 mph - N/A Snow Light Snow
8:50 AM 32.0 °F 23.0 °F 30.2 °F 93% 29.90 in 1.2 mi ENE 11.5 mph - 0.03 in Snow Light Snow
8:53 AM 32.0 °F 22.5 °F 30.0 °F 92% 29.96 in 1.5 mi ENE 12.7 mph - 0.03 in Snow Light Snow
9:11 AM 32.0 °F 23.6 °F 30.2 °F 93% 29.91 in 0.8 mi ENE 10.4 mph - 0.00 in Snow Light Snow
9:25 AM 32.0 °F 24.2 °F 30.2 °F 93% 29.91 in 1.2 mi ENE 9.2 mph - 0.00 in Snow Light Snow
9:35 AM 32.0 °F 23.6 °F 30.2 °F 93% 29.91 in 0.8 mi ENE 10.4 mph - 0.00 in Snow Light Snow
9:53 AM 32.0 °F 23.6 °F 30.9 °F 96% 29.98 in 1.0 mi ENE 10.4 mph - 0.00 in Snow Light Snow
10:17 AM 32.0 °F 23.6 °F 30.2 °F 93% 29.93 in 0.8 mi ENE 10.4 mph - N/A Snow Light Snow
10:53 AM 32.0 °F 23.0 °F 30.9 °F 96% 30.01 in 0.5 mi ENE 11.5 mph - 0.02 in Fog , Snow Snow
11:44 AM 32.0 °F 21.6 °F 30.2 °F 93% 29.94 in 1.0 mi ENE 15.0 mph - 0.01 in Snow Light Snow
11:53 AM 32.0 °F 22.5 °F 30.9 °F 96% 30.02 in 0.8 mi ENE 12.7 mph - 0.01 in Snow Light Snow
12:12 PM 32.0 °F 22.1 °F 30.2 °F 93% 29.96 in 0.5 mi ENE 13.8 mph - 0.00 in Fog , Snow Snow
12:37 PM 32.0 °F 20.8 °F 30.2 °F 93% 29.96 in 0.8 mi ENE 17.3 mph - 0.00 in Snow Light Snow
12:53 PM 32.0 °F 20.8 °F 30.0 °F 92% 30.05 in 0.5 mi ENE 17.3 mph - 0.00 in Fog , Snow Snow
1:11 PM 32.0 °F 21.2 °F 30.2 °F 93% 29.99 in 0.5 mi NE 16.1 mph - 0.00 in Fog , Snow Snow
1:20 PM 32.0 °F 19.8 °F 30.2 °F 93% 30.00 in 0.8 mi NE 20.7 mph - 0.00 in Snow Light Snow
1:30 PM 30.2 °F 17.8 °F 28.4 °F 93% 30.01 in 1.2 mi ENE 19.6 mph - 0.00 in Snow Light Snow
1:39 PM 32.0 °F 21.2 °F 28.4 °F 87% 30.01 in 1.0 mi ENE 16.1 mph - 0.00 in Snow Light Snow
1:53 PM 30.9 °F 19.1 °F 28.9 °F 92% 30.09 in 1.2 mi ENE 18.4 mph - 0.00 in Snow Light Snow
2:06 PM 30.2 °F 18.9 °F 28.4 °F 93% 30.03 in 1.0 mi ENE 16.1 mph - 0.00 in Snow Light Snow
2:15 PM 30.2 °F 16.8 °F 28.4 °F 93% 30.04 in 0.8 mi ENE 23.0 mph 27.6 mph 0.01 in Snow Light Snow
2:23 PM 30.2 °F 17.1 °F 28.4 °F 93% 30.05 in 1.0 mi ENE 21.9 mph - 0.01 in Snow Light Snow
2:28 PM 30.2 °F 19.3 °F 28.4 °F 93% 30.05 in 1.2 mi NE 15.0 mph 25.3 mph 0.01 in Snow Light Snow
2:42 PM 30.2 °F 17.4 °F 28.4 °F 93% 30.06 in 1.0 mi NE 20.7 mph 29.9 mph 0.01 in Snow Light Snow
2:51 PM 30.2 °F 17.4 °F 28.4 °F 93% 30.07 in 1.0 mi NE 20.7 mph 27.6 mph 0.01 in Snow Light Snow
2:53 PM 30.9 °F 18.7 °F 28.0 °F 89% 30.15 in 1.0 mi NE 19.6 mph 26.5 mph 0.01 in Snow Light Snow
2:56 PM 30.2 °F 18.1 °F 28.4 °F 93% 30.08 in 1.0 mi NE 18.4 mph - 0.00 in Snow Light Snow
3:11 PM 30.2 °F 18.5 °F 28.4 °F 93% 30.10 in 0.8 mi NE 17.3 mph 28.8 mph 0.00 in Snow Light Snow
3:53 PM 30.2 °F 17.4 °F 28.4 °F 93% 30.15 in 0.8 mi NE 20.7 mph 25.3 mph N/A Snow Light Snow
4:09 PM 30.2 °F 17.8 °F 28.4 °F 93% 30.17 in 0.5 mi NE 19.6 mph 26.5 mph 0.00 in Fog , Snow Snow
4:17 PM 30.2 °F 17.1 °F 26.6 °F 86% 30.18 in 0.5 mi NE 21.9 mph 29.9 mph 0.00 in Fog , Snow Snow
4:27 PM 30.2 °F 18.1 °F 26.6 °F 86% 30.19 in 1.2 mi NE 18.4 mph - 0.00 in Snow Light Snow
4:38 PM 30.2 °F 17.8 °F 26.6 °F 86% 30.20 in 1.5 mi NE 19.6 mph 26.5 mph 0.00 in Snow Light Snow
4:53 PM 30.0 °F 17.9 °F 27.0 °F 88% 30.30 in 2.0 mi NE 18.4 mph 26.5 mph 0.00 in Snow Light Snow
5:32 PM 30.2 °F 19.3 °F 26.6 °F 86% 30.27 in 4.0 mi NE 15.0 mph - 0.00 in Snow Light Snow
5:44 PM 30.2 °F 19.3 °F 26.6 °F 86% 30.28 in 6.0 mi NE 15.0 mph - 0.00 in Snow Light Snow
5:53 PM 30.0 °F 17.9 °F 26.1 °F 85% 30.37 in 6.0 mi NE 18.4 mph 23.0 mph 0.00 in Snow Light Snow
6:53 PM 28.0 °F 15.7 °F 23.0 °F 81% 30.45 in 9.0 mi NE 17.3 mph 26.5 mph 0.00 in   Overcast
7:53 PM 28.0 °F 16.1 °F 21.0 °F 75% 30.51 in 10.0 mi NNE 16.1 mph - 0.00 in   Overcast
8:53 PM 27.0 °F 15.6 °F 21.0 °F 78% 30.56 in 10.0 mi NNE 13.8 mph - N/A   Overcast
9:53 PM 26.1 °F 18.4 °F 21.0 °F 81% 30.59 in 10.0 mi NNE 6.9 mph - N/A   Overcast
10:53 PM 23.0 °F 18.4 °F 19.0 °F 85% 30.63 in 10.0 mi NNW 3.5 mph - N/A   Scattered Clouds
11:53 PM 19.4 °F 10.4 °F 15.8 °F 86% 30.57 in 10.0 mi West 6.9 mph - N/A   Mostly Cloudy